Weather in Gyumri

Armenia     40°47′06″N   43°50′30″E
temp.,
°C
wind,
m/s
gust,
m/s
humid.,
%
clouds,
%
prec.,
mm/h
press.,
hPa
HPBL,
m
14 april, wed
wed1401:00+4e0170100 0.2 101850
04:00+3nnw017698 0.4 101733
07:00+3nne0178100 0.0 101822
10:00+7sw24545 0.0 10171043
13:00+12sw463296 0.1 10142756
16:00+13wsw792047 0.1 10133409
19:00+11wnw572961 0.0 1014524
22:00+8nne114261 0.0 101621
15 april, thu
thu1501:00+5n11495 0.0 101713
04:00+4nne11540 0.0 101911
07:00+3n115712 0.0 102011
10:00+8w124149 0.0 1018673
13:00+12ssw2331100 0.0 10162014
16:00+15sse3427100 0.0 10132477
19:00+13sw1535100 0.0 1013282
22:00+8n2457100 0.1 1017119
16 april, fri
fri1601:00+8nne226044 0.0 101646
04:00+6nne22658 0.0 101718
07:00+5nne11655 0.0 101816
10:00+10wsw01461 0.0 1017687
13:00+15s353292 0.0 10152447
16:00+17wsw3726100 0.1 10132708
19:00+14ese224099 0.2 101499
22:00+9nne345679 0.2 101868
17 april, sat
sat1701:00+7ne337078 0.0 101959
04:00+6nne22725 0.0 101921
07:00+6n1169100 0.0 101915
10:00+11wsw1151100 0.0 1018558
13:00+16ssw353796 0.0 10161827
16:00+16se2543100 0.1 10151568
19:00+12ene346682 1.1 1017233
22:00+11nne2376100 1.8 101992
18 april, sun
sun1801:00+9nne2280100 0.1 101914
04:00+8nne118189 0.1 101910
07:00+8n117987 0.0 101911
10:00+14wsw245761 0.0 1018774
13:00+19ssw3734100 0.0 10142692
16:00+19wsw7735100 0.1 10132198
19:00+15nnw2454100 0.1 1016158
22:00+12nne2266100 0.1 101814